Weather History for McCook, NE

Change the Weather History Date:

Friday, December 6, 2013

  Actual Average Record
Temperature  
Mean Temperature 5 °F 29 °F  
Max Temperature 14 °F 43 °F 77 °F (1939)
Min Temperature -4 °F 16 °F -21 °F (1909)
Degree Days  
Heating Degree Days 60    
Moisture  
Dew Point -9 °F    
Average Humidity 56    
Maximum Humidity 69    
Minimum Humidity 41    
Precipitation  
Precipitation 0.00 in 0.03 in 0.10 in (1972)
Month to date precipitation 0.00 0.14  
Year to date precipitation 12.61 22.03  
Sea Level Pressure  
Sea Level Pressure 30.62 in    
Wind  
Wind Speed 5 mph (NE)    
Max Wind Speed 8 mph    
Max Gust Speed -    
Visibility 10 miles    
Events      
T = Trace of Precipitation, MM = Missing Value Source: NWS Daily Summary

Daily Weather History Graph

Daily Weather History Graph

Search for Another Location

Airport:

Trip Planner

Search our weather history database for the weather conditions in past years. The results will help you decide how hot, cold, wet, or windy it might be!

Date:

Astronomy

Dec. 06, 2013 Rise Set
Actual Time 7:50 AM CST 5:16 PM CST
Civil Twilight 7:20 AM CST 5:46 PM CST
Nautical Twilight 6:46 AM CST 6:20 PM CST
Astronomical Twilight 6:13 AM CST 6:53 PM CST
Moon 10:57 AM CST (12/6) 9:50 PM CST (12/6)
Length of Visible Light 10h 26m
Length of Day
9h 25m
Waxing Crescent, 19% of the Moon is Illuminated
Dec 6
Waxing Crescent
Dec 9
First Quarter
Dec 17
Full
Dec 25
Last Quarter
Jan 1
New

Hourly Weather History & Observations

Time (CST) Temp. Windchill Dew Point Humidity Pressure Visibility Wind Dir Wind Speed Gust Speed Precip Events Conditions
12:53 AM 6.1 °F -6.8 °F -9.0 °F 50% 30.51 in 10.0 mi NE 8.1 mph - N/A   Overcast
1:53 AM 3.0 °F -8.0 °F -9.0 °F 57% 30.52 in 10.0 mi NE 5.8 mph - N/A   Mostly Cloudy
2:53 AM 1.0 °F -6.7 °F -9.9 °F 60% 30.53 in 10.0 mi NE 3.5 mph - N/A   Clear
3:53 AM -0.9 °F -8.9 °F -9.9 °F 66% 30.55 in 10.0 mi North 3.5 mph - N/A   Clear
4:53 AM -2.0 °F -10.1 °F -11.0 °F 66% 30.55 in 10.0 mi North 3.5 mph - N/A   Scattered Clouds
5:53 AM -2.9 °F -11.2 °F -11.0 °F 68% 30.58 in 10.0 mi NNE 3.5 mph - N/A   Scattered Clouds
6:53 AM -2.9 °F -13.3 °F -11.0 °F 68% 30.58 in 10.0 mi NE 4.6 mph - N/A   Partly Cloudy
7:53 AM -2.9 °F -11.2 °F -11.0 °F 68% 30.62 in 10.0 mi North 3.5 mph - N/A   Partly Cloudy
8:53 AM -0.0 °F -7.9 °F -8.0 °F 69% 30.62 in 10.0 mi North 3.5 mph - N/A   Partly Cloudy
9:53 AM 3.9 °F - -8.0 °F 58% 30.64 in 10.0 mi Calm Calm - N/A   Clear
10:53 AM 7.0 °F -3.3 °F -8.0 °F 51% 30.65 in 10.0 mi NNE 5.8 mph - N/A   Partly Cloudy
11:53 AM 9.0 °F -2.2 °F -8.0 °F 46% 30.65 in 10.0 mi North 6.9 mph - N/A   Scattered Clouds
12:53 PM 10.0 °F 3.6 °F -7.1 °F 46% 30.62 in 10.0 mi Variable 3.5 mph - N/A   Overcast
1:53 PM 12.0 °F 2.7 °F -7.1 °F 42% 30.59 in 10.0 mi ENE 5.8 mph - N/A   Partly Cloudy
2:53 PM 12.9 °F 3.8 °F -7.1 °F 41% 30.60 in 10.0 mi NNE 5.8 mph - N/A   Clear
3:53 PM 12.9 °F 6.9 °F -6.0 °F 43% 30.61 in 10.0 mi North 3.5 mph - N/A   Clear
4:53 PM 12.9 °F - -7.1 °F 41% 30.63 in 10.0 mi Calm Calm - N/A   Clear
5:53 PM 9.0 °F 0.6 °F -8.0 °F 46% 30.66 in 10.0 mi East 4.6 mph - N/A   Clear
6:53 PM 7.0 °F 0.1 °F -8.0 °F 51% 30.68 in 10.0 mi ESE 3.5 mph - N/A   Clear
7:53 PM 5.0 °F -4.1 °F -8.0 °F 55% 30.69 in 10.0 mi East 4.6 mph - N/A   Clear
8:53 PM 3.0 °F -8.0 °F -9.0 °F 57% 30.70 in 10.0 mi East 5.8 mph - N/A   Clear
9:53 PM 1.0 °F -10.3 °F -9.9 °F 60% 30.71 in 10.0 mi ENE 5.8 mph - N/A   Clear
10:53 PM -0.9 °F -12.7 °F -9.9 °F 66% 30.73 in 10.0 mi ENE 5.8 mph - N/A   Clear
11:53 PM -0.9 °F -11.0 °F -11.0 °F 62% 30.73 in 10.0 mi ENE 4.6 mph - N/A   Clear